This is the latest recevied weather packets stored in our database for station/object K0PFX-8. If no packets are shown the sender has not sent any weather packets the latest 10 day(s).
| Time | Temp. | Humidity | Pressure | Rain* | Wind** | Luminosity | Snow |
|---|---|---|---|---|---|---|---|
| 1778042969 | 8.89° C | 100% | 1013.2 hPa | 0.25 mm | 0 m/s | - | - |
| 1778042068 | 8.33° C | 100% | 1013 hPa | 0 mm | 0 m/s | - | - |
| 1778041169 | 8.33° C | 100% | 1013.1 hPa | 0 mm | 0 m/s | - | - |
| 1778040268 | 8.33° C | 100% | 1013.1 hPa | 0 mm | 0 m/s | - | - |
| 1778039369 | 8.33° C | 100% | 1013.2 hPa | 0 mm | 0 m/s | - | - |
| 1778038468 | 8.33° C | 100% | 1013.3 hPa | 1.02 mm | 0.45 m/s, 240° | - | - |
| 1778037570 | 8.33° C | 100% | 1012.6 hPa | 1.02 mm | 0 m/s | - | - |
| 1778036668 | 8.33° C | 100% | 1012.2 hPa | 1.02 mm | 0 m/s | - | - |
| 1778035770 | 8.33° C | 100% | 1012.1 hPa | 1.02 mm | 0 m/s | - | - |
| 1778034868 | 8.33° C | 100% | 1012 hPa | 2.03 mm | 0 m/s | - | - |
| 1778033970 | 8.33° C | 100% | 1012.3 hPa | 2.03 mm | 0 m/s | - | - |
| 1778033068 | 8.33° C | 100% | 1012.1 hPa | 2.03 mm | 0 m/s | - | - |
| 1778032170 | 8.33° C | 100% | 1012.3 hPa | 2.03 mm | 0 m/s | - | - |
| 1778031268 | 8.33° C | 100% | 1011.1 hPa | 1.02 mm | 0 m/s | - | - |
| 1778030370 | 7.78° C | 100% | 1012 hPa | 1.02 mm | 0 m/s | - | - |
| 1778029468 | 7.78° C | 100% | 1011.4 hPa | 1.02 mm | 0 m/s | - | - |
| 1778028569 | 8.33° C | 100% | 1011.1 hPa | 1.02 mm | 0.89 m/s, 37° | - | - |
| 1778027668 | 7.78° C | 100% | 1011.5 hPa | 2.03 mm | 0 m/s | - | - |
| 1778026769 | 7.78° C | 100% | 1011.1 hPa | 2.03 mm | 0.89 m/s, 31° | - | - |
| 1778025868 | 7.78° C | 100% | 1010.9 hPa | 2.03 mm | 0.45 m/s, 23° | - | - |
| 1778024969 | 8.33° C | 100% | 1010.8 hPa | 2.03 mm | 0 m/s | - | - |
| 1778023169 | 8.89° C | 100% | 1010.9 hPa | 0 mm | 0.89 m/s, 304° | - | - |
| 1778022268 | 8.89° C | 100% | 1010.7 hPa | 0 mm | 0 m/s | - | - |
| 1778021369 | 8.89° C | 100% | 1010.2 hPa | 0 mm | 2.68 m/s, 359° | - | - |
| 1778020467 | 8.89° C | 100% | 1009.9 hPa | 0.25 mm | 2.68 m/s, 10° | - | - |
* Rain latest hour (hover to see other rain measurements)
** Current wind speed in m/s (hover to see current wind gust speed)